sat.trackr.live / text

‹ back to catalog

STARLINK-37548

NORAD 69027 · 2026-101C

PAYLOAD ACTIVE UNKNOWN

§ Identity

Operator
Country
US
Launch date
2026-05-06
Launch site
AFWTR
Launch vehicle
Mass (kg)
RCS (m²)

Purposes: comms

External: N2YO · Heavens-Above · Gunter

§ Orbital elements

Epoch: 2026-09-19T00:56:08.648736Z

Period
93.91 min
Inclination
97.2871°
Eccentricity
0.0001160
Mean motion
15.33458929 rev/d
Perigee alt
464.7 km
Apogee alt
466.3 km
Semi-major
6,843.6 km
B*
4.9151e-4
RAAN
115.5204°
Arg perigee
84.8250°
Mean anomaly
275.3125°
Rev number
2,095

§ Raw data

STARLINK-375481 69027U 26101C   26262.03898899  .00015833  00000+0  49151-3 0  99982 69027  97.2871 115.5204 0001160  84.8250 275.3125 15.33458929 20953

JSON: /api/v1/satellites/69027 · /tle

For live sub-satellite position, see the globe view (requires WebGL).

§ Visibility from observer

Set your observer location to see the next 7 days of passes ≥ 10°. The values pass through the URL so the page stays shareable.

No JS? Fill the form by hand. The geolocation button needs JavaScript.